Year,Month,Day,Hour,Minute,Value (Times are PST for temperature in C)
2015,07,01,00,00,14.80
2015,07,01,00,01,14.80
2015,07,01,00,02,14.80
2015,07,01,00,03,14.80
2015,07,01,00,04,14.80
2015,07,01,00,05,14.70
2015,07,01,00,06,14.70
2015,07,01,00,07,14.70
2015,07,01,00,08,14.70
2015,07,01,00,09,14.70
2015,07,01,00,10,14.70
2015,07,01,00,11,14.70
2015,07,01,00,12,14.70
2015,07,01,00,13,14.80
2015,07,01,00,14,14.80
2015,07,01,00,15,14.80
2015,07,01,00,16,14.80
2015,07,01,00,17,14.80
2015,07,01,00,18,14.80
2015,07,01,00,19,14.80
2015,07,01,00,20,14.80
2015,07,01,00,21,14.80
2015,07,01,00,22,14.80
2015,07,01,00,23,14.90
2015,07,01,00,24,14.90
2015,07,01,00,25,14.90
2015,07,01,00,26,14.90
2015,07,01,00,27,15.00
2015,07,01,00,28,15.00
2015,07,01,00,29,15.00
2015,07,01,00,30,15.00
2015,07,01,00,31,15.10
2015,07,01,00,32,15.10
2015,07,01,00,33,15.10
2015,07,01,00,34,15.00
2015,07,01,00,35,15.10
2015,07,01,00,36,15.00
2015,07,01,00,37,15.00
2015,07,01,00,38,15.00
2015,07,01,00,39,15.00
2015,07,01,00,40,15.00
2015,07,01,00,41,15.00
2015,07,01,00,42,15.00
2015,07,01,00,43,15.00
2015,07,01,00,44,15.00
2015,07,01,00,45,15.00
2015,07,01,00,46,14.90
2015,07,01,00,47,14.90
2015,07,01,00,48,14.90
2015,07,01,00,49,14.90
2015,07,01,00,50,14.90
2015,07,01,00,51,14.80
2015,07,01,00,52,14.80
2015,07,01,00,53,14.80
2015,07,01,00,54,14.80
2015,07,01,00,55,14.70
2015,07,01,00,56,14.70
2015,07,01,00,57,14.70
2015,07,01,00,58,14.70
2015,07,01,00,59,14.60
2015,07,01,01,00,14.60
2015,07,01,01,01,14.60
2015,07,01,01,02,14.60
2015,07,01,01,03,14.60
2015,07,01,01,04,14.60
2015,07,01,01,05,14.60
2015,07,01,01,06,14.60
2015,07,01,01,07,14.60
2015,07,01,01,08,14.60
2015,07,01,01,09,14.60
2015,07,01,01,10,14.60
2015,07,01,01,11,14.60
2015,07,01,01,12,14.60
2015,07,01,01,13,14.60
2015,07,01,01,14,14.60
2015,07,01,01,15,14.60
2015,07,01,01,16,14.60
2015,07,01,01,17,14.60
2015,07,01,01,18,14.60
2015,07,01,01,19,14.50
2015,07,01,01,20,14.50
2015,07,01,01,21,14.40
2015,07,01,01,22,14.40
2015,07,01,01,23,14.40
2015,07,01,01,24,14.40
2015,07,01,01,25,14.30
2015,07,01,01,26,14.30
2015,07,01,01,27,14.30
2015,07,01,01,28,14.20
2015,07,01,01,29,14.20
2015,07,01,01,30,14.20
2015,07,01,01,31,14.20
2015,07,01,01,32,14.10
2015,07,01,01,33,14.10
2015,07,01,01,34,14.10
2015,07,01,01,35,14.10
2015,07,01,01,36,14.10
2015,07,01,01,37,14.00
2015,07,01,01,38,14.00
2015,07,01,01,39,14.00
2015,07,01,01,40,14.00
2015,07,01,01,41,13.90
2015,07,01,01,42,13.90
2015,07,01,01,43,13.90
2015,07,01,01,44,13.90
2015,07,01,01,45,13.90
2015,07,01,01,46,13.90
2015,07,01,01,47,13.90
2015,07,01,01,48,13.90
2015,07,01,01,49,13.90
2015,07,01,01,50,13.80
2015,07,01,01,51,13.80
2015,07,01,01,52,13.80
2015,07,01,01,53,13.80
2015,07,01,01,54,13.80
2015,07,01,01,55,13.80
2015,07,01,01,56,13.80
2015,07,01,01,57,13.80
2015,07,01,01,58,13.80
2015,07,01,01,59,13.80
2015,07,01,02,00,13.80
2015,07,01,02,01,13.80
2015,07,01,02,02,13.80
2015,07,01,02,03,13.80
2015,07,01,02,04,13.80
2015,07,01,02,05,13.80
2015,07,01,02,06,13.80
2015,07,01,02,07,13.80
2015,07,01,02,08,13.80
2015,07,01,02,09,13.80
2015,07,01,02,10,13.80
2015,07,01,02,11,13.80
2015,07,01,02,12,13.80
2015,07,01,02,13,13.80
2015,07,01,02,14,13.80
2015,07,01,02,15,13.80
2015,07,01,02,16,13.80
2015,07,01,02,17,13.80
2015,07,01,02,18,13.80
2015,07,01,02,19,13.80
2015,07,01,02,20,13.80
2015,07,01,02,21,13.80
2015,07,01,02,22,13.80
2015,07,01,02,23,13.90
2015,07,01,02,24,13.90
2015,07,01,02,25,13.90
2015,07,01,02,26,13.90
2015,07,01,02,27,13.90
2015,07,01,02,28,13.90
2015,07,01,02,29,13.90
2015,07,01,02,30,13.90
2015,07,01,02,31,13.80
2015,07,01,02,32,13.80
2015,07,01,02,33,13.80
2015,07,01,02,34,13.80
2015,07,01,02,35,13.80
2015,07,01,02,36,13.80
2015,07,01,02,37,13.80
2015,07,01,02,38,13.80
2015,07,01,02,39,13.80
2015,07,01,02,40,13.80
2015,07,01,02,41,13.80
2015,07,01,02,42,13.80
2015,07,01,02,43,13.80
2015,07,01,02,44,13.80
2015,07,01,02,45,13.80
2015,07,01,02,46,13.80
2015,07,01,02,47,13.80
2015,07,01,02,48,13.80
2015,07,01,02,49,13.80
2015,07,01,02,50,13.80
2015,07,01,02,51,13.80
2015,07,01,02,52,13.70
2015,07,01,02,53,13.70
2015,07,01,02,54,13.70
2015,07,01,02,55,13.70
2015,07,01,02,56,13.70
2015,07,01,02,57,13.70
2015,07,01,02,58,13.70
2015,07,01,02,59,13.70
2015,07,01,03,00,13.70
2015,07,01,03,01,13.70
2015,07,01,03,02,13.70
2015,07,01,03,03,13.70
2015,07,01,03,04,13.70
2015,07,01,03,05,13.70
2015,07,01,03,06,13.70
2015,07,01,03,07,13.70
2015,07,01,03,08,13.70
2015,07,01,03,09,13.60
2015,07,01,03,10,13.60
2015,07,01,03,11,13.60
2015,07,01,03,12,13.60
2015,07,01,03,13,13.60
2015,07,01,03,14,13.60
2015,07,01,03,15,13.60
2015,07,01,03,16,13.60
2015,07,01,03,17,13.60
2015,07,01,03,18,13.60
2015,07,01,03,19,13.60
2015,07,01,03,20,13.60
2015,07,01,03,21,13.50
2015,07,01,03,22,13.50
2015,07,01,03,23,13.50
2015,07,01,03,24,13.50
2015,07,01,03,25,13.50
2015,07,01,03,26,13.50
2015,07,01,03,27,13.50
2015,07,01,03,28,13.50
2015,07,01,03,29,13.50
2015,07,01,03,30,13.40
2015,07,01,03,31,13.40
2015,07,01,03,32,13.40
2015,07,01,03,33,13.40
2015,07,01,03,34,13.40
2015,07,01,03,35,13.40
2015,07,01,03,36,13.40
2015,07,01,03,37,13.40
2015,07,01,03,38,13.40
2015,07,01,03,39,13.40
2015,07,01,03,40,13.40
2015,07,01,03,41,13.40
2015,07,01,03,42,13.40
2015,07,01,03,43,13.40
2015,07,01,03,44,13.40
2015,07,01,03,45,13.40
2015,07,01,03,46,13.40
2015,07,01,03,47,13.40
2015,07,01,03,48,13.40
2015,07,01,03,49,13.40
2015,07,01,03,50,13.40
2015,07,01,03,51,13.40
2015,07,01,03,52,13.40
2015,07,01,03,53,13.40
2015,07,01,03,54,13.40
2015,07,01,03,55,13.40
2015,07,01,03,56,13.40
2015,07,01,03,57,13.40
2015,07,01,03,58,13.40
2015,07,01,03,59,13.40
2015,07,01,04,00,13.40
2015,07,01,04,01,13.40
2015,07,01,04,02,13.30
2015,07,01,04,03,13.30
2015,07,01,04,04,13.30
2015,07,01,04,05,13.30
2015,07,01,04,06,13.30
2015,07,01,04,07,13.30
2015,07,01,04,08,13.30
2015,07,01,04,09,13.30
2015,07,01,04,10,13.30
2015,07,01,04,11,13.30
2015,07,01,04,12,13.30
2015,07,01,04,13,13.30
2015,07,01,04,14,13.30
2015,07,01,04,15,13.30
2015,07,01,04,16,13.30
2015,07,01,04,17,13.30
2015,07,01,04,18,13.20
2015,07,01,04,19,13.20
2015,07,01,04,20,13.20
2015,07,01,04,21,13.20
2015,07,01,04,22,13.20
2015,07,01,04,23,13.20
2015,07,01,04,24,13.20
2015,07,01,04,25,13.20
2015,07,01,04,26,13.20
2015,07,01,04,27,13.20
2015,07,01,04,28,13.20
2015,07,01,04,29,13.20
2015,07,01,04,30,13.20
2015,07,01,04,31,13.10
2015,07,01,04,32,13.10
2015,07,01,04,33,13.10
2015,07,01,04,34,13.10
2015,07,01,04,35,13.10
2015,07,01,04,36,13.10
2015,07,01,04,37,13.10
2015,07,01,04,38,13.00
2015,07,01,04,39,13.00
2015,07,01,04,40,13.00
2015,07,01,04,41,13.00
2015,07,01,04,42,13.00
2015,07,01,04,43,13.00
2015,07,01,04,44,13.00
2015,07,01,04,45,12.90
2015,07,01,04,46,12.90
2015,07,01,04,47,12.90
2015,07,01,04,48,12.90
2015,07,01,04,49,13.00
2015,07,01,04,50,13.00
2015,07,01,04,51,13.00
2015,07,01,04,52,13.00
2015,07,01,04,53,13.00
2015,07,01,04,54,13.00
2015,07,01,04,55,13.00
2015,07,01,04,56,13.00
2015,07,01,04,57,13.00
2015,07,01,04,58,13.00
2015,07,01,04,59,13.00
2015,07,01,05,00,12.90
2015,07,01,05,01,12.90
2015,07,01,05,02,12.90
2015,07,01,05,03,12.90
2015,07,01,05,04,12.90
2015,07,01,05,05,12.90
2015,07,01,05,06,12.80
2015,07,01,05,07,12.80
2015,07,01,05,08,12.80
2015,07,01,05,09,12.80
2015,07,01,05,10,12.80
2015,07,01,05,11,12.90
2015,07,01,05,12,12.90
2015,07,01,05,13,12.90
2015,07,01,05,14,12.90
2015,07,01,05,15,12.90
2015,07,01,05,16,12.90
2015,07,01,05,17,12.90
2015,07,01,05,18,12.90
2015,07,01,05,19,12.90
2015,07,01,05,20,12.90
2015,07,01,05,21,12.80
2015,07,01,05,22,12.80
2015,07,01,05,23,12.80
2015,07,01,05,24,12.80
2015,07,01,05,25,12.80
2015,07,01,05,26,12.80
2015,07,01,05,27,12.80
2015,07,01,05,28,12.80
2015,07,01,05,29,12.80
2015,07,01,05,30,12.80
2015,07,01,05,31,12.80
2015,07,01,05,32,12.80
2015,07,01,05,33,12.80
2015,07,01,05,34,12.80
2015,07,01,05,35,12.80
2015,07,01,05,36,12.80
2015,07,01,05,37,12.80
2015,07,01,05,38,12.80
2015,07,01,05,39,12.80
2015,07,01,05,40,12.80
2015,07,01,05,41,12.80
2015,07,01,05,42,12.90
2015,07,01,05,43,12.90
2015,07,01,05,44,12.90
2015,07,01,05,45,12.80
2015,07,01,05,46,12.80
2015,07,01,05,47,12.80
2015,07,01,05,48,12.80
2015,07,01,05,49,12.80
2015,07,01,05,50,12.80
2015,07,01,05,51,12.80
2015,07,01,05,52,12.80
2015,07,01,05,53,12.80
2015,07,01,05,54,12.70
2015,07,01,05,55,12.70
2015,07,01,05,56,12.70
2015,07,01,05,57,12.70
2015,07,01,05,58,12.70
2015,07,01,05,59,12.70
2015,07,01,06,00,12.70
2015,07,01,06,01,12.70
2015,07,01,06,02,12.70
2015,07,01,06,03,12.70
2015,07,01,06,04,12.70
2015,07,01,06,05,12.70
2015,07,01,06,06,12.80
2015,07,01,06,07,12.80
2015,07,01,06,08,12.80
2015,07,01,06,09,12.80
2015,07,01,06,10,12.80
2015,07,01,06,11,12.80
2015,07,01,06,12,12.80
2015,07,01,06,13,12.80
2015,07,01,06,14,12.80
2015,07,01,06,15,12.80
2015,07,01,06,16,12.80
2015,07,01,06,17,12.80
2015,07,01,06,18,12.80
2015,07,01,06,19,12.80
2015,07,01,06,20,12.80
2015,07,01,06,21,12.80
2015,07,01,06,22,12.80
2015,07,01,06,23,12.90
2015,07,01,06,24,12.90
2015,07,01,06,25,13.00
2015,07,01,06,26,13.10
2015,07,01,06,27,13.10
2015,07,01,06,28,13.20
2015,07,01,06,29,13.20
2015,07,01,06,30,13.20
2015,07,01,06,31,13.30
2015,07,01,06,32,13.30
2015,07,01,06,33,13.30
2015,07,01,06,34,13.40
2015,07,01,06,35,13.50
2015,07,01,06,36,13.60
2015,07,01,06,37,13.60
2015,07,01,06,38,13.70
2015,07,01,06,39,13.70
2015,07,01,06,40,13.80
2015,07,01,06,41,13.90
2015,07,01,06,42,14.00
2015,07,01,06,43,14.10
2015,07,01,06,44,14.20
2015,07,01,06,45,14.20
2015,07,01,06,46,14.30
2015,07,01,06,47,14.30
2015,07,01,06,48,14.30
2015,07,01,06,49,14.30
2015,07,01,06,50,14.30
2015,07,01,06,51,14.30
2015,07,01,06,52,14.30
2015,07,01,06,53,14.30
2015,07,01,06,54,14.30
2015,07,01,06,55,14.30
2015,07,01,06,56,14.30
2015,07,01,06,57,14.30
2015,07,01,06,58,14.30
2015,07,01,06,59,14.30
2015,07,01,07,00,14.30
2015,07,01,07,01,14.30
2015,07,01,07,02,14.30
2015,07,01,07,03,14.30
2015,07,01,07,04,14.30
2015,07,01,07,05,14.30
2015,07,01,07,06,14.30
2015,07,01,07,07,14.30
2015,07,01,07,08,14.40
2015,07,01,07,09,14.40
2015,07,01,07,10,14.40
2015,07,01,07,11,14.40
2015,07,01,07,12,14.40
2015,07,01,07,13,14.40
2015,07,01,07,14,14.40
2015,07,01,07,15,14.40
2015,07,01,07,16,14.40
2015,07,01,07,17,14.40
2015,07,01,07,18,14.40
2015,07,01,07,19,14.50
2015,07,01,07,20,14.50
2015,07,01,07,21,14.50
2015,07,01,07,22,14.50
2015,07,01,07,23,14.50
2015,07,01,07,24,14.50
2015,07,01,07,25,14.50
2015,07,01,07,26,14.50
2015,07,01,07,27,14.50
2015,07,01,07,28,14.50
2015,07,01,07,29,14.60
2015,07,01,07,30,14.60
2015,07,01,07,31,14.60
2015,07,01,07,32,14.70
2015,07,01,07,33,14.70
2015,07,01,07,34,14.70
2015,07,01,07,35,14.70
2015,07,01,07,36,14.70
2015,07,01,07,37,14.70
2015,07,01,07,38,14.80
2015,07,01,07,39,14.80
2015,07,01,07,40,14.90
2015,07,01,07,41,14.90
2015,07,01,07,42,14.90
2015,07,01,07,43,14.90
2015,07,01,07,44,14.90
2015,07,01,07,45,14.90
2015,07,01,07,46,14.90
2015,07,01,07,47,14.90
2015,07,01,07,48,14.90
2015,07,01,07,49,14.90
2015,07,01,07,50,15.00
2015,07,01,07,51,15.00
2015,07,01,07,52,15.10
2015,07,01,07,53,15.10
2015,07,01,07,54,15.10
2015,07,01,07,55,15.10
2015,07,01,07,56,15.20
2015,07,01,07,57,15.30
2015,07,01,07,58,15.30
2015,07,01,07,59,15.40
2015,07,01,08,00,15.50
2015,07,01,08,01,15.50
2015,07,01,08,02,15.60
2015,07,01,08,03,15.70
2015,07,01,08,04,15.80
2015,07,01,08,05,15.80
2015,07,01,08,06,15.90
2015,07,01,08,07,15.90
2015,07,01,08,08,16.00
2015,07,01,08,09,16.10
2015,07,01,08,10,16.10
2015,07,01,08,11,16.20
2015,07,01,08,12,16.20
2015,07,01,08,13,16.30
2015,07,01,08,14,16.30
2015,07,01,08,15,16.40
2015,07,01,08,16,16.40
2015,07,01,08,17,16.50
2015,07,01,08,18,16.60
2015,07,01,08,19,16.60
2015,07,01,08,20,16.70
2015,07,01,08,21,16.80
2015,07,01,08,22,16.80
2015,07,01,08,23,16.80
2015,07,01,08,24,16.90
2015,07,01,08,25,16.90
2015,07,01,08,26,16.90
2015,07,01,08,27,17.00
2015,07,01,08,28,17.00
2015,07,01,08,29,17.10
2015,07,01,08,30,17.10
2015,07,01,08,31,17.20
2015,07,01,08,32,17.30
2015,07,01,08,33,17.40
2015,07,01,08,34,17.40
2015,07,01,08,35,17.40
2015,07,01,08,36,17.40
2015,07,01,08,37,17.40
2015,07,01,08,38,17.30
2015,07,01,08,39,17.30
2015,07,01,08,40,17.30
2015,07,01,08,41,17.30
2015,07,01,08,42,17.30
2015,07,01,08,43,17.30
2015,07,01,08,44,17.40
2015,07,01,08,45,17.40
2015,07,01,08,46,17.40
2015,07,01,08,47,17.40
2015,07,01,08,48,17.40
2015,07,01,08,49,17.40
2015,07,01,08,50,17.40
2015,07,01,08,51,17.40
2015,07,01,08,52,17.40
2015,07,01,08,53,17.40
2015,07,01,08,54,17.40
2015,07,01,08,55,17.40
2015,07,01,08,56,17.30
2015,07,01,08,57,17.20
2015,07,01,08,58,17.10
2015,07,01,08,59,17.00
2015,07,01,09,00,16.90
2015,07,01,09,01,16.90
2015,07,01,09,02,16.80
2015,07,01,09,03,16.70
2015,07,01,09,04,16.70
2015,07,01,09,05,16.70
2015,07,01,09,06,16.70
2015,07,01,09,07,16.70
2015,07,01,09,08,16.70
2015,07,01,09,09,16.70
2015,07,01,09,10,16.70
2015,07,01,09,11,16.60
2015,07,01,09,12,16.50
2015,07,01,09,13,16.40
2015,07,01,09,14,16.30
2015,07,01,09,15,16.20
2015,07,01,09,16,16.20
2015,07,01,09,17,16.20
2015,07,01,09,18,16.20
2015,07,01,09,19,16.20
2015,07,01,09,20,16.20
2015,07,01,09,21,16.20
2015,07,01,09,22,16.20
2015,07,01,09,23,16.20
2015,07,01,09,24,16.10
2015,07,01,09,25,16.10
2015,07,01,09,26,16.00
2015,07,01,09,27,16.00
2015,07,01,09,28,16.10
2015,07,01,09,29,16.10
2015,07,01,09,30,16.20
2015,07,01,09,31,16.20
2015,07,01,09,32,16.20
2015,07,01,09,33,16.30
2015,07,01,09,34,16.30
2015,07,01,09,35,16.40
2015,07,01,09,36,16.40
2015,07,01,09,37,16.40
2015,07,01,09,38,16.50
2015,07,01,09,39,16.50
2015,07,01,09,40,16.60
2015,07,01,09,41,16.60
2015,07,01,09,42,16.70
2015,07,01,09,43,16.70
2015,07,01,09,44,16.80
2015,07,01,09,45,16.80
2015,07,01,09,46,16.80
2015,07,01,09,47,16.90
2015,07,01,09,48,16.90
2015,07,01,09,49,16.90
2015,07,01,09,50,17.00
2015,07,01,09,51,17.00
2015,07,01,09,52,17.00
2015,07,01,09,53,17.00
2015,07,01,09,54,17.00
2015,07,01,09,55,16.90
2015,07,01,09,56,16.90
2015,07,01,09,57,16.90
2015,07,01,09,58,16.90
2015,07,01,09,59,16.90
2015,07,01,10,00,16.90
2015,07,01,10,01,16.90
2015,07,01,10,02,16.90
2015,07,01,10,03,17.00
2015,07,01,10,04,17.00
2015,07,01,10,05,17.00
2015,07,01,10,06,16.90
2015,07,01,10,07,16.90
2015,07,01,10,08,16.90
2015,07,01,10,09,16.90
2015,07,01,10,10,16.90
2015,07,01,10,11,16.80
2015,07,01,10,12,16.80
2015,07,01,10,13,16.90
2015,07,01,10,14,16.90
2015,07,01,10,15,16.90
2015,07,01,10,16,16.90
2015,07,01,10,17,17.00
2015,07,01,10,18,17.00
2015,07,01,10,19,16.90
2015,07,01,10,20,17.00
2015,07,01,10,21,17.00
2015,07,01,10,22,17.00
2015,07,01,10,23,16.90
2015,07,01,10,24,16.90
2015,07,01,10,25,16.80
2015,07,01,10,26,16.80
2015,07,01,10,27,16.80
2015,07,01,10,28,16.80
2015,07,01,10,29,16.70
2015,07,01,10,30,16.80
2015,07,01,10,31,16.80
2015,07,01,10,32,16.80
2015,07,01,10,33,16.70
2015,07,01,10,34,16.70
2015,07,01,10,35,16.70
2015,07,01,10,36,16.70
2015,07,01,10,37,16.70
2015,07,01,10,38,16.70
2015,07,01,10,39,16.70
2015,07,01,10,40,16.70
2015,07,01,10,41,16.70
2015,07,01,10,42,16.70
2015,07,01,10,43,16.70
2015,07,01,10,44,16.60
2015,07,01,10,45,16.60
2015,07,01,10,46,16.60
2015,07,01,10,47,16.60
2015,07,01,10,48,16.70
2015,07,01,10,49,16.70
2015,07,01,10,50,16.70
2015,07,01,10,51,16.70
2015,07,01,10,52,16.70
2015,07,01,10,53,16.70
2015,07,01,10,54,16.60
2015,07,01,10,55,16.60
2015,07,01,10,56,16.60
2015,07,01,10,57,16.60
2015,07,01,10,58,16.60
2015,07,01,10,59,16.60
2015,07,01,11,00,16.60
2015,07,01,11,01,16.60
2015,07,01,11,02,16.70
2015,07,01,11,03,16.70
2015,07,01,11,04,16.70
2015,07,01,11,05,16.80
2015,07,01,11,06,16.80
2015,07,01,11,07,16.80
2015,07,01,11,08,16.90
2015,07,01,11,09,16.90
2015,07,01,11,10,16.90
2015,07,01,11,11,16.90
2015,07,01,11,12,16.90
2015,07,01,11,13,16.80
2015,07,01,11,14,16.80
2015,07,01,11,15,16.80
2015,07,01,11,16,16.70
2015,07,01,11,17,16.60
2015,07,01,11,18,16.60
2015,07,01,11,19,16.60
2015,07,01,11,20,16.60
2015,07,01,11,21,16.60
2015,07,01,11,22,16.50
2015,07,01,11,23,16.50
2015,07,01,11,24,16.50
2015,07,01,11,25,16.50
2015,07,01,11,26,16.40
2015,07,01,11,27,16.50
2015,07,01,11,28,16.50
2015,07,01,11,29,16.50
2015,07,01,11,30,16.50
2015,07,01,11,31,16.50
2015,07,01,11,32,16.60
2015,07,01,11,33,16.60
2015,07,01,11,34,16.60
2015,07,01,11,35,16.60
2015,07,01,11,36,16.70
2015,07,01,11,37,16.70
2015,07,01,11,38,16.60
2015,07,01,11,39,16.60
2015,07,01,11,40,16.60
2015,07,01,11,41,16.50
2015,07,01,11,42,16.40
2015,07,01,11,43,16.50
2015,07,01,11,44,16.60
2015,07,01,11,45,16.70
2015,07,01,11,46,16.80
2015,07,01,11,47,16.90
2015,07,01,11,48,17.00
2015,07,01,11,49,17.10
2015,07,01,11,50,17.10
2015,07,01,11,51,17.20
2015,07,01,11,52,17.20
2015,07,01,11,53,17.20
2015,07,01,11,54,17.20
2015,07,01,11,55,17.30
2015,07,01,11,56,17.30
2015,07,01,11,57,17.30
2015,07,01,11,58,17.30
2015,07,01,11,59,17.40
2015,07,01,12,00,17.50
2015,07,01,12,01,17.60
2015,07,01,12,02,17.70
2015,07,01,12,03,17.70
2015,07,01,12,04,17.80
2015,07,01,12,05,17.90
2015,07,01,12,06,18.00
2015,07,01,12,07,18.20
2015,07,01,12,08,18.30
2015,07,01,12,09,18.40
2015,07,01,12,10,18.40
2015,07,01,12,11,18.50
2015,07,01,12,12,18.50
2015,07,01,12,13,18.50
2015,07,01,12,14,18.50
2015,07,01,12,15,18.40
2015,07,01,12,16,18.40
2015,07,01,12,17,18.40
2015,07,01,12,18,18.40
2015,07,01,12,19,18.40
2015,07,01,12,20,18.40
2015,07,01,12,21,18.40
2015,07,01,12,22,18.40
2015,07,01,12,23,18.50
2015,07,01,12,24,18.50
2015,07,01,12,25,18.60
2015,07,01,12,26,18.70
2015,07,01,12,27,18.70
2015,07,01,12,28,18.80
2015,07,01,12,29,18.90
2015,07,01,12,30,18.90
2015,07,01,12,31,19.00
2015,07,01,12,32,19.00
2015,07,01,12,33,19.10
2015,07,01,12,34,19.10
2015,07,01,12,35,19.10
2015,07,01,12,36,19.10
2015,07,01,12,37,19.20
2015,07,01,12,38,19.30
2015,07,01,12,39,19.50
2015,07,01,12,40,19.60
2015,07,01,12,41,19.70
2015,07,01,12,42,19.70
2015,07,01,12,43,19.80
2015,07,01,12,44,19.80
2015,07,01,12,45,19.90
2015,07,01,12,46,20.00
2015,07,01,12,47,20.10
2015,07,01,12,48,20.30
2015,07,01,12,49,20.40
2015,07,01,12,50,20.50
2015,07,01,12,51,20.60
2015,07,01,12,52,20.70
2015,07,01,12,53,20.70
2015,07,01,12,54,20.70
2015,07,01,12,55,20.70
2015,07,01,12,56,20.70
2015,07,01,12,57,20.60
2015,07,01,12,58,20.50
2015,07,01,12,59,20.40
2015,07,01,13,00,20.40
2015,07,01,13,01,20.40
2015,07,01,13,02,20.40
2015,07,01,13,03,20.40
2015,07,01,13,04,20.50
2015,07,01,13,05,20.50
2015,07,01,13,06,20.60
2015,07,01,13,07,20.60
2015,07,01,13,08,20.70
2015,07,01,13,09,20.80
2015,07,01,13,10,20.90
2015,07,01,13,11,21.10
2015,07,01,13,12,21.20
2015,07,01,13,13,21.20
2015,07,01,13,14,21.30
2015,07,01,13,15,21.30
2015,07,01,13,16,21.40
2015,07,01,13,17,21.40
2015,07,01,13,18,21.50
2015,07,01,13,19,21.60
2015,07,01,13,20,21.70
2015,07,01,13,21,21.80
2015,07,01,13,22,21.80
2015,07,01,13,23,21.80
2015,07,01,13,24,21.90
2015,07,01,13,25,21.90
2015,07,01,13,26,22.00
2015,07,01,13,27,22.00
2015,07,01,13,28,22.10
2015,07,01,13,29,22.20
2015,07,01,13,30,22.20
2015,07,01,13,31,22.20
2015,07,01,13,32,22.20
2015,07,01,13,33,22.20
2015,07,01,13,34,22.20
2015,07,01,13,35,22.20
2015,07,01,13,36,22.20
2015,07,01,13,37,22.20
2015,07,01,13,38,22.20
2015,07,01,13,39,22.20
2015,07,01,13,40,22.20
2015,07,01,13,41,22.30
2015,07,01,13,42,22.30
2015,07,01,13,43,22.40
2015,07,01,13,44,22.50
2015,07,01,13,45,22.60
2015,07,01,13,46,22.70
2015,07,01,13,47,22.80
2015,07,01,13,48,22.90
2015,07,01,13,49,22.90
2015,07,01,13,50,22.80
2015,07,01,13,51,22.80
2015,07,01,13,52,22.80
2015,07,01,13,53,22.80
2015,07,01,13,54,22.80
2015,07,01,13,55,22.70
2015,07,01,13,56,22.70
2015,07,01,13,57,22.70
2015,07,01,13,58,22.70
2015,07,01,13,59,22.80
2015,07,01,14,00,22.80
2015,07,01,14,01,22.80
2015,07,01,14,02,22.80
2015,07,01,14,03,22.70
2015,07,01,14,04,22.70
2015,07,01,14,05,22.70
2015,07,01,14,06,22.80
2015,07,01,14,07,22.90
2015,07,01,14,08,23.00
2015,07,01,14,09,23.00
2015,07,01,14,10,23.10
2015,07,01,14,11,23.20
2015,07,01,14,12,23.30
2015,07,01,14,13,23.40
2015,07,01,14,14,23.40
2015,07,01,14,15,23.40
2015,07,01,14,16,23.40
2015,07,01,14,17,23.30
2015,07,01,14,18,23.20
2015,07,01,14,19,23.20
2015,07,01,14,20,23.20
2015,07,01,14,21,23.20
2015,07,01,14,22,23.20
2015,07,01,14,23,23.20
2015,07,01,14,24,23.20
2015,07,01,14,25,23.30
2015,07,01,14,26,23.30
2015,07,01,14,27,23.40
2015,07,01,14,28,23.40
2015,07,01,14,29,23.40
2015,07,01,14,30,23.40
2015,07,01,14,31,23.50
2015,07,01,14,32,23.60
2015,07,01,14,33,23.60
2015,07,01,14,34,23.70
2015,07,01,14,35,23.80
2015,07,01,14,36,23.80
2015,07,01,14,37,23.90
2015,07,01,14,38,23.90
2015,07,01,14,39,23.80
2015,07,01,14,40,23.80
2015,07,01,14,41,23.80
2015,07,01,14,42,23.80
2015,07,01,14,43,23.70
2015,07,01,14,44,23.70
2015,07,01,14,45,23.70
2015,07,01,14,46,23.80
2015,07,01,14,47,23.80
2015,07,01,14,48,23.80
2015,07,01,14,49,23.80
2015,07,01,14,50,23.80
2015,07,01,14,51,23.80
2015,07,01,14,52,23.80
2015,07,01,14,53,23.80
2015,07,01,14,54,23.70
2015,07,01,14,55,23.70
2015,07,01,14,56,23.70
2015,07,01,14,57,23.70
2015,07,01,14,58,23.80
2015,07,01,14,59,23.80
2015,07,01,15,00,23.80
2015,07,01,15,01,23.80
2015,07,01,15,02,23.70
2015,07,01,15,03,23.60
2015,07,01,15,04,23.60
2015,07,01,15,05,23.50
2015,07,01,15,06,23.40
2015,07,01,15,07,23.30
2015,07,01,15,08,23.30
2015,07,01,15,09,23.40
2015,07,01,15,10,23.40
2015,07,01,15,11,23.50
2015,07,01,15,12,23.60
2015,07,01,15,13,23.60
2015,07,01,15,14,23.70
2015,07,01,15,15,23.60
2015,07,01,15,16,23.60
2015,07,01,15,17,23.50
2015,07,01,15,18,23.50
2015,07,01,15,19,23.60
2015,07,01,15,20,23.60
2015,07,01,15,21,23.60
2015,07,01,15,22,23.60
2015,07,01,15,23,23.70
2015,07,01,15,24,23.60
2015,07,01,15,25,23.60
2015,07,01,15,26,23.60
2015,07,01,15,27,23.50
2015,07,01,15,28,23.40
2015,07,01,15,29,23.40
2015,07,01,15,30,23.40
2015,07,01,15,31,23.30
2015,07,01,15,32,23.30
2015,07,01,15,33,23.30
2015,07,01,15,34,23.40
2015,07,01,15,35,23.50
2015,07,01,15,36,23.60
2015,07,01,15,37,23.60
2015,07,01,15,38,23.60
2015,07,01,15,39,23.60
2015,07,01,15,40,23.60
2015,07,01,15,41,23.60
2015,07,01,15,42,23.60
2015,07,01,15,43,23.70
2015,07,01,15,44,23.70
2015,07,01,15,45,23.80
2015,07,01,15,46,23.80
2015,07,01,15,47,23.90
2015,07,01,15,48,23.90
2015,07,01,15,49,24.00
2015,07,01,15,50,24.00
2015,07,01,15,51,24.10
2015,07,01,15,52,24.10
2015,07,01,15,53,24.20
2015,07,01,15,54,24.30
2015,07,01,15,55,24.40
2015,07,01,15,56,24.40
2015,07,01,15,57,24.50
2015,07,01,15,58,24.60
2015,07,01,15,59,24.60
2015,07,01,16,00,24.70
2015,07,01,16,01,24.70
2015,07,01,16,02,24.70
2015,07,01,16,03,24.70
2015,07,01,16,04,24.70
2015,07,01,16,05,24.80
2015,07,01,16,06,24.80
2015,07,01,16,07,24.90
2015,07,01,16,08,24.90
2015,07,01,16,09,24.90
2015,07,01,16,10,24.80
2015,07,01,16,11,24.70
2015,07,01,16,12,24.60
2015,07,01,16,13,24.60
2015,07,01,16,14,24.50
2015,07,01,16,15,24.50
2015,07,01,16,16,24.60
2015,07,01,16,17,24.60
2015,07,01,16,18,24.70
2015,07,01,16,19,24.70
2015,07,01,16,20,24.70
2015,07,01,16,21,24.60
2015,07,01,16,22,24.60
2015,07,01,16,23,24.50
2015,07,01,16,24,24.50
2015,07,01,16,25,24.40
2015,07,01,16,26,24.40
2015,07,01,16,27,24.40
2015,07,01,16,28,24.50
2015,07,01,16,29,24.50
2015,07,01,16,30,24.40
2015,07,01,16,31,24.40
2015,07,01,16,32,24.40
2015,07,01,16,33,24.50
2015,07,01,16,34,24.50
2015,07,01,16,35,24.60
2015,07,01,16,36,24.70
2015,07,01,16,37,24.70
2015,07,01,16,38,24.60
2015,07,01,16,39,24.60
2015,07,01,16,40,24.60
2015,07,01,16,41,24.60
2015,07,01,16,42,24.70
2015,07,01,16,43,24.70
2015,07,01,16,44,24.80
2015,07,01,16,45,24.80
2015,07,01,16,46,24.90
2015,07,01,16,47,24.90
2015,07,01,16,48,24.90
2015,07,01,16,49,25.00
2015,07,01,16,50,25.10
2015,07,01,16,51,25.10
2015,07,01,16,52,25.10
2015,07,01,16,53,25.20
2015,07,01,16,54,25.20
2015,07,01,16,55,25.20
2015,07,01,16,56,25.20
2015,07,01,16,57,25.30
2015,07,01,16,58,25.30
2015,07,01,16,59,25.30
2015,07,01,17,00,25.40
2015,07,01,17,01,25.40
2015,07,01,17,02,25.40
2015,07,01,17,03,25.40
2015,07,01,17,04,25.30
2015,07,01,17,05,25.30
2015,07,01,17,06,25.10
2015,07,01,17,07,25.10
2015,07,01,17,08,25.10
2015,07,01,17,09,25.10
2015,07,01,17,10,25.00
2015,07,01,17,11,25.00
2015,07,01,17,12,24.90
2015,07,01,17,13,25.00
2015,07,01,17,14,25.00
2015,07,01,17,15,25.10
2015,07,01,17,16,25.10
2015,07,01,17,17,25.00
2015,07,01,17,18,25.00
2015,07,01,17,19,25.00